Weather in Platanias

Greece     39°08′39″N   23°26′19″E
temp.,
°C
wind,
m/s
gust,
m/s
humid.,
%
clouds,
%
prec.,
mm/h
press.,
hPa
HPBL,
m
11 may, tue
tue1100:00+17wsw01412 0.0 1020196
03:00+17ne235112 0.0 1019612
06:00+17ene436165 0.0 1018637
09:00+16ene54660 0.0 1019554
12:00+16ene55620 0.0 1018567
15:00+16ene54630 0.0 1017450
18:00+17ese446195 0.0 1016431
21:00+17se23565 0.0 1015326
12 may, wed
wed1200:00+17ssw11556 0.0 1014159
03:00+17ene12540 0.0 1013199
06:00+17ese23630 0.0 1012368
09:00+17se33671 0.0 1012388
12:00+17ese446932 0.0 1011384
15:00+18ese5569100 0.0 1009345
18:00+18se5663100 0.0 1008358
21:00+18se45740 0.0 1007256
13 may, thu
thu1300:00+18s12774 0.0 100768
03:00+18n44785 0.0 1007206
06:00+18nnw23775 0.0 1007240
09:00+18wsw117373 0.0 1008139
12:00+19ene11670 0.0 1009107
15:00+20ese43680 0.0 1008190
18:00+19se78785 0.0 1007190
21:00+19se687942 0.0 1007158
14 may, fri
fri1400:00+19w44730 0.0 100843
03:00+19wsw69680 0.0 1008119
06:00+19w45660 0.0 100996
09:00+19wsw45640 0.0 1011114
12:00+20sw34620 0.0 101272
15:00+21se33610 0.0 101248
18:00+21se78690 0.0 1012170
21:00+19sse710750 0.0 1012159
15 may, sat
sat1500:00+19s44765 0.0 101255
03:00+19wsw45702 0.0 101166
06:00+19w5666100 0.0 101296
09:00+19sw2364100 0.0 101248
12:00+20s0163100 0.0 101211
15:00+20ese4561100 0.0 1010131
18:00+20nne3368100 0.0 100849
21:00+19ne3373100 0.1 100757